Home > Weather > Altdorf > Past weeks

Flag for Switzerland Past Weather in Altdorf, Uri, Switzerland — Yesterday and Last 2 Weeks

Now
55 °F

Cool.


Feels Like: 55 °F
Forecast: 55 / 68 °F
Wind: 2 mph from Southeast

Location: Altdorf

Current Time: May 31, 2016 at 9:48:48 AM

Latest Report: May 31, 2016 at 7:00 AM


Visibility: N/A

Pressure: 29.85 "Hg

Humidity: 87%

Dew Point: 51 °F

Location of AltdorfLocation

Past Weather in Altdorf — Graph

°F

Altdorf Temperature Yesterday

Maximum temperature yesterday: 67 °F (at 3:00 PM)
Minimum temperature yesterday: 56 °F (at 4:00 AM)
Average temperature yesterday: 60 °F

High & Low Weather Summary for the Past Weeks

 TemperatureHumidityPressure
High78 °F (May 22, 4:00 PM)96% (May 17, 4:00 AM)30.24 "Hg (May 17, 4:00 AM)
Low42 °F (May 20, 7:00 AM)29% (May 22, 4:00 PM)29.69 "Hg (May 29, 3:00 PM)
Average57 °F74%29.95 "Hg
* Reported May 16 7:00 AM — May 31 7:00 AM, Altdorf, Weather by CustomWeather, © 2016

Note: Actual official high and low records may vary slightly from our data, if they occured in-between our weather recording intervals... More about our weather records

Advertising

Altdorf Weather History for the Previous 24 Hours

Scroll right to see more
 ConditionsComfort  
Time TempWeatherWind HumidityBarometerVisibility
7:00 AM
Tue, May 31
55 °FCool.2 mph87%29.85 "HgN/A
6:00 AM53 °FCool.3 mph90%29.86 "HgN/A
5:00 AM52 °FOvercast.No wind93%29.85 "Hg12 mi
4:00 AM53 °FCool.No wind92%29.84 "HgN/A
3:00 AM53 °FCool.3 mph89%29.83 "HgN/A
2:00 AM53 °FOvercast.3 mph94%29.83 "Hg12 mi
1:00 AM55 °FCool.5 mph88%29.83 "HgN/A
12:00 AM54 °FCool.2 mph94%29.83 "HgN/A
11:00 PM
Mon, May 30
58 °FOvercast.1 mph88%29.82 "Hg12 mi
10:00 PM59 °FCool.1 mph89%29.81 "HgN/A
9:00 PM59 °FCool.2 mph92%29.80 "HgN/A
8:00 PM61 °FOvercast.2 mph88%29.78 "Hg9 mi
7:00 PM62 °FMild.2 mph86%29.76 "HgN/A
6:00 PM63 °FMild.1 mph82%29.76 "HgN/A
5:00 PM63 °FDrizzle. Overcast.3 mph81%29.75 "Hg6 mi
4:00 PM65 °FMild.5 mph62%29.73 "HgN/A
3:00 PM67 °FMild.7 mph57%29.71 "HgN/A
1:00 PM64 °FMild.5 mph68%29.73 "HgN/A
12:00 PM62 °FMild.2 mph71%29.74 "HgN/A
11:00 AM61 °FOvercast.3 mph83%29.75 "Hg9 mi
10:00 AM59 °FCool.3 mph89%29.75 "HgN/A
9:00 AM58 °FCool.2 mph91%29.76 "HgN/A
Weather by CustomWeather, © 2016

See weather overviewHow to use our weather pages